timestamp,surface_pressure_avg,surface_temp_avg,battery_voltage,lat,long
2021-11-11 00:09:00+00:00,234.3331,9.6,12.65,47.84626,-54.09684
2021-11-11 00:19:00+00:00,240.9464,9.6,12.65,47.84626,-54.09684
2021-11-11 00:29:00+00:00,246.6347,9.6,12.65,47.84626,-54.09684
2021-11-11 00:39:00+00:00,244.7798,9.6,12.65,47.84626,-54.09684
2021-11-11 00:49:00+00:00,243.8748,9.6,12.65,47.84626,-54.09684
2021-11-11 00:59:00+00:00,248.3347,9.59,12.65,47.84626,-54.09684
2021-11-11 01:09:00+00:00,246.5581,9.5,12.65,47.84626,-54.09684
2021-11-11 01:19:00+00:00,248.3548,9.5,12.65,47.84626,-54.09684
2021-11-11 01:29:00+00:00,257.5314,9.5,12.65,47.84626,-54.09684
2021-11-11 01:39:00+00:00,264.1048,9.5,12.65,47.84626,-54.09684
2021-11-11 01:49:00+00:00,263.9081,9.5,12.65,47.84626,-54.09684
2021-11-11 01:59:00+00:00,269.6831,9.5,12.65,47.84626,-54.09684
2021-11-11 02:09:00+00:00,278.4981,9.5,12.65,47.84626,-54.09684
2021-11-11 02:19:00+00:00,282.3547,9.36,12.65,47.84626,-54.09684
2021-11-11 02:29:00+00:00,284.2497,9.2,12.65,47.84626,-54.09684
2021-11-11 02:39:00+00:00,294.6863,9.2,12.65,47.84626,-54.09684
2021-11-11 02:49:00+00:00,302.368,9.2,12.65,47.84626,-54.09684
2021-11-11 02:59:00+00:00,305.1013,9.2,12.65,47.84626,-54.09684
2021-11-11 03:09:00+00:00,308.343,9.2,12.65,47.84626,-54.09684
2021-11-11 03:19:00+00:00,315.1263,9.2,12.65,47.84626,-54.09684
2021-11-11 03:29:00+00:00,316.3546,9.2,12.65,47.84626,-54.09684
2021-11-11 03:39:00+00:00,319.1447,9.2,12.65,47.84626,-54.09684
2021-11-11 03:49:00+00:00,326.7596,9.2,12.65,47.84626,-54.09684
2021-11-11 03:59:00+00:00,331.0212,9.27,12.65,47.84626,-54.09684
2021-11-11 04:09:00+00:00,330.61300000000006,9.27,12.65,47.84626,-54.09684
2021-11-11 04:19:00+00:00,330.0013,9.29,12.57,47.84626,-54.09684
2021-11-11 04:29:00+00:00,332.0763,9.29,12.57,47.84626,-54.09684
2021-11-11 04:39:00+00:00,333.5447,9.29,12.57,47.84626,-54.09684
2021-11-11 04:49:00+00:00,335.6862,9.29,12.57,47.84626,-54.09684
2021-11-11 04:59:00+00:00,334.4514,9.26,12.57,47.84626,-54.09684
2021-11-11 05:09:00+00:00,335.3346,9.2,12.57,47.84626,-54.09684
2021-11-11 05:19:00+00:00,341.1763,9.16,12.57,47.84626,-54.09684
2021-11-11 05:29:00+00:00,343.0262,9.12,12.57,47.84626,-54.09684
2021-11-11 05:39:00+00:00,339.1779,9.1,12.57,47.84626,-54.09684
2021-11-11 05:49:00+00:00,336.9163,9.07,12.57,47.84626,-54.09684
2021-11-11 05:59:00+00:00,339.0245,9.1,12.57,47.84626,-54.09684
2021-11-11 06:09:00+00:00,334.6880000000001,9.19,12.57,47.84626,-54.09684
2021-11-11 06:19:00+00:00,327.1747,9.1,12.57,47.84626,-54.09684
2021-11-11 06:29:00+00:00,322.2679,9.1,12.57,47.84626,-54.09684
2021-11-11 06:39:00+00:00,317.1746,9.1,12.57,47.84626,-54.09684
2021-11-11 06:49:00+00:00,311.8397,9.1,12.57,47.84626,-54.09684
2021-11-11 06:59:00+00:00,304.7264,9.1,12.57,47.84626,-54.09684
2021-11-11 07:09:00+00:00,296.3547,9.1,12.57,47.84626,-54.09684
2021-11-11 07:19:00+00:00,293.3164,9.1,12.57,47.84626,-54.09684
2021-11-11 07:29:00+00:00,289.9747,9.1,12.57,47.84626,-54.09684
2021-11-11 07:39:00+00:00,281.598,9.12,12.57,47.84626,-54.09684
2021-11-11 07:49:00+00:00,275.5947,9.17,12.57,47.84626,-54.09684
2021-11-11 07:59:00+00:00,271.9914,9.1,12.57,47.84626,-54.09684
2021-11-11 08:09:00+00:00,264.7764,9.03,12.57,47.84626,-54.09684
2021-11-11 08:19:00+00:00,253.6731,9.05,12.49,47.84626,-54.09684
2021-11-11 08:29:00+00:00,246.9364,9.0,12.49,47.84626,-54.09684
2021-11-11 08:39:00+00:00,241.2598,9.0,12.49,47.84626,-54.09684
2021-11-11 08:49:00+00:00,234.7148,9.0,12.49,47.84626,-54.09684
2021-11-11 08:59:00+00:00,230.7997,9.0,12.49,47.84626,-54.09684
2021-11-11 09:09:00+00:00,232.4981,9.01,12.49,47.84626,-54.09684
2021-11-11 09:19:01+00:00,233.7848,9.05,12.49,47.84626,-54.09684
2021-11-11 09:29:01+00:00,235.4614,9.07,12.49,47.84626,-54.09684
2021-11-11 09:39:01+00:00,239.2948,9.07,12.49,47.84626,-54.09684
2021-11-11 09:49:01+00:00,243.1081,9.02,12.49,47.84626,-54.09684
2021-11-11 09:59:01+00:00,242.9998,9.05,12.49,47.84626,-54.09684
2021-11-11 10:09:01+00:00,244.8848,9.0,12.49,47.84626,-54.09684
2021-11-11 10:19:00+00:00,248.1864,9.04,12.49,47.84626,-54.09684
2021-11-11 10:29:00+00:00,246.5581,9.07,12.49,47.84626,-54.09684
2021-11-11 10:39:00+00:00,242.828,9.03,12.49,47.84626,-54.09684
2021-11-11 10:49:00+00:00,247.5098,9.04,12.49,47.84626,-54.09684
2021-11-11 10:59:00+00:00,251.5014,9.04,12.49,47.84626,-54.09684
2021-11-11 11:09:00+00:00,250.0631,9.0,12.49,47.84626,-54.09684
2021-11-11 11:19:00+00:00,249.5531,9.0,12.49,47.84626,-54.09684
2021-11-11 11:29:00+00:00,255.0631,9.0,12.49,47.84626,-54.09684
2021-11-11 11:39:00+00:00,255.4898,8.99,12.49,47.84626,-54.09684
2021-11-11 11:49:00+00:00,252.4147,8.92,12.49,47.84626,-54.09684
2021-11-11 11:59:00+00:00,250.3398,8.9,12.49,47.84626,-54.09684
2021-11-11 12:09:00+00:00,251.4382,8.9,12.49,47.84626,-54.09684
2021-11-11 12:19:00+00:00,251.2496,8.9,12.49,47.84626,-54.09684
2021-11-11 12:29:00+00:00,252.2097,8.9,12.49,47.84626,-54.09684
2021-11-11 12:39:00+00:00,252.0714,8.9,12.49,47.84626,-54.09684
2021-11-11 12:49:00+00:00,255.5615,8.9,12.49,47.84626,-54.09684
2021-11-11 12:59:00+00:00,259.1548,8.9,12.49,47.84626,-54.09684
2021-11-11 13:09:00+00:00,264.2347,8.91,12.49,47.84626,-54.09684
2021-11-11 13:19:01+00:00,266.8781,8.96,12.57,47.84626,-54.09684
2021-11-11 13:29:01+00:00,273.6198,8.9,12.57,47.84626,-54.09684
2021-11-11 13:39:01+00:00,277.4664,9.04,12.57,47.84626,-54.09684
2021-11-11 13:49:01+00:00,279.8881,9.1,12.57,47.84626,-54.09684
2021-11-11 13:59:01+00:00,281.8781,9.1,12.57,47.84626,-54.09684
2021-11-11 14:09:01+00:00,291.283,9.0,12.57,47.84626,-54.09684
2021-11-11 14:19:00+00:00,297.408,9.0,12.57,47.84626,-54.09684
2021-11-11 14:29:00+00:00,298.7314,9.0,12.57,47.84626,-54.09684
2021-11-11 14:39:00+00:00,303.3813,9.0,12.57,47.84626,-54.09684
2021-11-11 14:49:00+00:00,312.4864,8.9,12.57,47.84626,-54.09684
2021-11-11 14:59:00+00:00,316.6846,9.04,12.57,47.84626,-54.09684
2021-11-11 15:09:00+00:00,320.923,9.0,12.57,47.84626,-54.09684
2021-11-11 15:19:01+00:00,328.86800000000005,8.9,12.57,47.84626,-54.09684
2021-11-11 15:29:01+00:00,333.5197,8.88,12.57,47.84626,-54.09684
2021-11-11 15:39:01+00:00,333.4764,8.84,12.57,47.84626,-54.09684
2021-11-11 15:49:01+00:00,340.3363,8.9,12.57,47.84626,-54.09684
2021-11-11 15:59:01+00:00,349.7629,8.9,12.57,47.84626,-54.09684
2021-11-11 16:09:01+00:00,350.7079,9.01,12.57,47.84626,-54.09684
2021-11-11 16:19:00+00:00,350.0962,9.08,12.65,47.84626,-54.09684
2021-11-11 16:29:00+00:00,356.0913,9.24,12.65,47.84626,-54.09684
2021-11-11 16:39:00+00:00,361.473,9.34,12.65,47.84626,-54.09684
2021-11-11 16:49:00+00:00,360.5462,9.39,12.65,47.84626,-54.09684
2021-11-11 16:59:00+00:00,359.9863,9.39,12.65,47.84626,-54.09684
2021-11-11 17:09:00+00:00,362.5546,9.4,12.65,47.84626,-54.09684
2021-11-11 17:19:00+00:00,360.9613,9.3,12.73,47.84626,-54.09684
2021-11-11 17:29:00+00:00,357.5645,9.19,12.73,47.84626,-54.09684
2021-11-11 17:39:00+00:00,361.3179,9.1,12.73,47.84626,-54.09684
2021-11-11 17:49:00+00:00,359.5046,9.17,12.73,47.84626,-54.09684
2021-11-11 17:59:00+00:00,352.8947,9.09,12.73,47.84626,-54.09684
2021-11-11 18:09:00+00:00,352.0513,8.9,12.73,47.84626,-54.09684
2021-11-11 18:19:00+00:00,351.0762,9.01,12.73,47.84626,-54.09684
2021-11-11 18:29:00+00:00,343.5763,9.1,12.73,47.84626,-54.09684
2021-11-11 18:39:00+00:00,339.8531,9.0,12.73,47.84626,-54.09684
2021-11-11 18:49:00+00:00,340.3746,9.08,12.73,47.84626,-54.09684
2021-11-11 18:59:00+00:00,332.9812,9.0,12.73,47.84626,-54.09684
2021-11-11 19:09:00+00:00,324.52299999999997,8.87,12.73,47.84626,-54.09684
2021-11-11 19:19:00+00:00,322.2263,8.99,12.57,47.84626,-54.09684
2021-11-11 19:29:00+00:00,317.648,9.2,12.57,47.84626,-54.09684
2021-11-11 19:39:00+00:00,308.2047,9.1,12.57,47.84626,-54.09684
2021-11-11 19:49:00+00:00,302.6946,9.1,12.57,47.84626,-54.09684
2021-11-11 19:59:00+00:00,297.8897,9.09,12.57,47.84626,-54.09684
2021-11-11 20:09:00+00:00,287.273,9.1,12.57,47.84626,-54.09684
2021-11-11 20:19:00+00:00,277.2181,9.29,12.49,47.84626,-54.09684
2021-11-11 20:29:00+00:00,273.2031,9.0,12.49,47.84626,-54.09684
2021-11-11 20:39:00+00:00,268.1247,8.89,12.49,47.84626,-54.09684
2021-11-11 20:49:00+00:00,259.368,9.0,12.49,47.84626,-54.09684
2021-11-11 20:59:00+00:00,254.5031,9.26,12.49,47.84626,-54.09684
2021-11-11 21:09:00+00:00,253.0431,9.3,12.49,47.84626,-54.09684
2021-11-11 21:19:01+00:00,247.6682,9.3,12.49,47.84626,-54.09684
2021-11-11 21:29:01+00:00,243.9915,9.3,12.49,47.84626,-54.09684
2021-11-11 21:39:01+00:00,241.9881,9.0,12.49,47.84626,-54.09684
2021-11-11 21:49:01+00:00,238.5298,9.02,12.49,47.84626,-54.09684
2021-11-11 21:59:01+00:00,234.9764,9.1,12.49,47.84626,-54.09684
2021-11-11 22:09:01+00:00,236.3681,9.2,12.49,47.84626,-54.09684
2021-11-11 22:19:01+00:00,237.1764,9.2,12.49,47.84626,-54.09684
2021-11-11 22:29:01+00:00,235.3914,9.21,12.49,47.84626,-54.09684
2021-11-11 22:39:01+00:00,235.1814,9.28,12.49,47.84626,-54.09684
2021-11-11 22:49:01+00:00,237.4131,9.3,12.49,47.84626,-54.09684
2021-11-11 22:59:01+00:00,238.3982,9.2,12.49,47.84626,-54.09684
2021-11-11 23:09:01+00:00,236.703,9.1,12.49,47.84626,-54.09684
2021-11-11 23:19:00+00:00,238.6097,9.07,12.49,47.84626,-54.09684
2021-11-11 23:29:00+00:00,239.7415,9.08,12.49,47.84626,-54.09684
2021-11-11 23:39:00+00:00,236.0481,9.09,12.49,47.84626,-54.09684
2021-11-11 23:49:00+00:00,232.6515,9.09,12.49,47.84626,-54.09684
2021-11-11 23:59:00+00:00,233.1848,9.07,12.49,47.84626,-54.09684
